Погода в Павлодаре

Погода в Павлодаре : погода сейчас, прогноз погоды и архив. Всё, что Вы хотите узнать о погоде в Павлодаре!

Поиск расширенной информации на нашем сайте:

Полезная информация:

Другие новости

Новости СМИ2

Главная страница сайта

Новости сайта

03.07.2017

Напоминаем, что на нашем специализированном сайте Метеоцентр.Азия вы можете получить высокодетализированные автоматические прогнозы погоды по пунктам России, СНГ и мира в авиационном формате (включающие направление и скорость ветра, видимость, явления погоды, количество и форму облачности, нижнюю и верхнюю границу облачности).

Рекомендуем:

Погода в Павлодаре - сегодня

Время (UTC), дата Ветер
(°,м/с) 
Видим.   Явления Облачность Т
(°С)
Тd
(°С)
f(%) Тe
(°С)
Pmin
(гПа)
dP
(гПа)
Po
(мм)
O2
(г/м3)
Тmin Tmax R s Состояние
почвы
09 15.09.19 320 (СЗ) 20000 м    6/3 1000 м кучево-дожд., средняя 
[Cb cap|Ac trans]
+23.8 +7.4 35 +24  1017.6  -1.1  753  278           
12 15.09.19 300 (СЗ) 20000 м    4/3 1000 м средняя 
[Cu hum|Ac trans]
+22.3 +7.2 38 +22  1017.5  -0.1  753  279           
15 15.09.19 180 (Ю) 20000 м    6/0 средняя, верхняя 
[Ac trans|Ci fib]
+14.5 +7.9 65 +16  1019  1.1  754  287    +24.7       
18 15.09.19 170 (Ю) 20000 м    ясно 
+11 +8.6 85 +12  1019  -0.1  753  290    +24.7       
21 15.09.19 180 (Ю) 20000 м    ясно 
+10.1 +8 87 +11  1018.9  -0.2  753  291           
00 16.09.19 170 (Ю) 20000 м    ясно 
+8.2 +6.9 92 +9  1019.3  0.3  754  294           
03 16.09.19 190 (Ю) 20000 м    ясно 
+15 +9.4 69 +16  1018.8  -0.1  753  286           
06 16.09.19 220 (ЮЗ) 20000 м    ясно 
+23.9 +7.6 35 +24  1017.2  -1.2  753  278  +6.7         
09 16.09.19 190 (Ю) 20000 м    8/6 1000 м кучево-дожд., средняя 
[Cb cap|Ac trans]
+24.8 +6.2 30 +25  1015.5  -1.7  751  277           
12 16.09.19 030 (СВ) 20000 м    8/6 600 м кучево-дожд., средняя 
[Cb cap|Ac trans]
+20.8 +6.9 40 +21  1015.1  -0.6  751  280           
15 16.09.19 080 (В) 20000 м    ясно 
+14.5 +7.4 62 +16  1015.3  751  286    +25.3       
18 16.09.19 190 (Ю) 20000 м    3/0 средняя 
[Ac trans]
+11.8 +6.5 70 +13  1014.8  0.7  750  289    +25.3       
21 16.09.19 200 (Ю) 20000 м    8/4 1000 м средняя 
[Sc|Ac trans]
+11.9 +6.6 70 +13  1014  -0.8  750  288           
00 17.09.19 190 (Ю) 20000 м    8/4 1000 м средняя 
[Sc|Ac trans]
+9.9 +6.2 78 +10  1014.3  0.2  750  291           
03 17.09.19 200 (Ю) 20000 м    3/1 1000 м кучево-дожд., средняя, верхняя 
[Cb cap|Ac trans|Ci fib]
+15.1 +7.4 60 +15  1014.3  0.3  750  285           
06 17.09.19 220 (ЮЗ) 20000 м    9/3 1000 м кучево-дожд., средняя, верхняя 
[Cb cap|Ac trans|Ci fib]
+22.7 +6.8 36 +23  1014.5  0.6  751  278  +9         
09 17.09.19 270 (З) 10 км  слаб. ливневой дождь  10/8 600 м кучево-дожд., средняя 
[Cb cap|Ac und]
+17.9 +9.3 57 +18  1016.9  2.1  752  283           
12 17.09.19 260 (З) 20000 м  {ливн. осадки}  10/9 600 м кучево-дожд., средняя 
[Cb cap|Ac und]
+18.8 +7.9 49 +20  1016.4  -0.4  752  282           
15 17.09.19 170 (Ю) 20000 м  в посл. час ливневой дождь  9/8 600 м кучево-дожд., средняя 
[Cb cap|Ac und]
+15.4 +8.5 63 +17  1017.1  0.5  752  285    +23.1  0.0     
18 17.09.19 тихо ()   20000 м  {ливн. осадки}  9/8 600 м кучево-дожд., средняя 
[Cb cap|Ac und]
+12.4 +8.8 79 +12  1017.5  0.2  752  288    +23.1  0.0     
21 17.09.19 190 (Ю) 20000 м    8/8 1000 м кучево-дожд., средняя 
[Cb cap|Ac trans]
+11.9 +7.8 76 +13  1017.6  0.1  752  289           
00 18.09.19 170 (Ю) 20000 м    9/8 1000 м кучево-дожд., средняя 
[Cb cap|Ac und]
+12.1 +7.8 75 +13  1017.5  -0.1  752  289           
03 18.09.19 200 (Ю) 20000 м    9/0 средняя, верхняя 
[Ac trans|Ci fib]
+15.6 +7.3 58 +16  1017.6  0.2  752  286           
06 18.09.19 240 (ЮЗ) 20000 м    4/0 средняя, верхняя 
[Ac trans|Ci fib]
+23.3 +8 37 +23  1017  -0.1  752  278  +11.2         
09 18.09.19 220 (ЮЗ) 20000 м    10/4 1000 м кучево-дожд., средняя, верхняя 
[Cb cap|Ac trans|Ci fib]
+26 +5.6 27 +26  1016  -0.9  752  276           
Время (UTC), дата Ветер
(°,м/с) 
Видим.   Явления Облачность Т
(°С)
Тd
(°С)
f(%) Тe
(°С)
Pmin
(гПа)
dP
(гПа)
Po
(мм)
O2
(г/м3)
Тmin Tmax R s Состояние
почвы

Для получения пояснительной информации подведите курсор к названию столбца.

ПОГОДА в Павлодаре - архив

Всё, что Вы хотите узнать о погоде в Павлодаре - удобно и подробно!

Выберите нужную дату (начиная с 1 января 2018* года) и нажмите кнопку "Найти".
Будут отображены архивные сводки погоды по пункту Павлодар, начиная с указанной даты.


Отображать данные в формате CSV (для использования в таблицах Excel)


Внимание! Наш архив погоды предназначен исключительно для личного некоммерческого использования в познавательных целях. Если Вам необходимы официальные справки о состоянии погоды (для производственных, юридических, коммерческих и т.п. целей), обращайтесь в органы Росгидромета.

*Примечание: данная дата относится к архиву по метеостанциям СССР (Россия, СНГ, Балтия).
Архив по метеостанциям Зарубежной Европы и Азии (кроме Китая) хранится 10 дней, по другим регионам земного шара (Китай, Африка, Америка, Австралия, Океания) - 1 день.

Павлодар - район местоположения метеостанции


Название, широта, долгота, высота метеостанции:
Павлодар 52.1°ш. 77.1°д. 125 м над ур. моря [Казахстан]

Дополнительная информация

В oтличие oт бoльшинства пoгoдных сайтoв мы публикуем пoдрoбную метеoинфoрмацию в детальнoм прoфессиoнальнoм фoрмате.

Характеристики температуры и влажнoсти вoздуха измеряются на высoте 2 м в тени вдали oт зданий и деревьев.
Скoрoсть ветра измеряется на высoте 10 м (на урoвне рoста челoвека скoрoсть ветра ниже в 1.5-2 раза). Если метеoстанция нахoдится в гoрoде или в лесу, тo скoрoсть ветра занижена на 2-4 м/с пo сравнению с oткрытым местoм. Скoрoсть ветра над акватoриями крупных рек и oзёр, а также на вершинах хoлмoв на 2-5 м/с выше, чем в oбычных услoвиях.
Атмoсфернoе давление в разных тoчках местнoсти мoжет значительнo oтличаться oт давления на метеoстанции, в зависимoсти oт услoвий рельефа (при пoдъёме на 10 м давление пoнижается примернo на 1 мм рт.ст.).